Location: Newark
(40.3500°N, 15.2333°E)
Time: 13:39:56
(UTC+00:00)

Vanguard 1 - Pass Details

Date: 29 January 2020
Orbit: 650 x 3833 km, 34.2° (Epoch: 24 February)

Event Time Altitude Azimuth Distance (km) Brightness Sun altitude
Rises 11:56:23 0° 203° (SSW) 4,553 14.6 30.8°
Reaches altitude 10° 12:03:04 10° 167° (SSE) 2,803 13.5 30.5°
Maximum altitude 12:04:09 10° 157° (SSE) 2,660 13.2 30.4°
Drops below altitude 10° 12:05:11 10° 147° (SSE) 2,589 12.9 30.4°
Sets 12:09:53 0° 105° (ESE) 3,137 12.7 30.1°
